Regional Weather Roundup
Issued by NWS

Home | Current Version | Previous Version | Graphics & Text | Print | Product List | Glossary On
Versions: 1 2 3 4 5 6 7 8 9 10 11 12 13 14 15 16 17 18 19 20 21 22 23 24 25 26 27 28 29 30 31 32 33 34 35 36 37 38 39 40 41 42 43 44 45 46 47 48 49 50
000
ASUS43 KBIS 221520
RWRND

NORTH DAKOTA REGIONAL WEATHER ROUNDUP
NATIONAL WEATHER SERVICE BISMARCK ND
1000 AM CDT TUE JUL 22 2014

NOTE: "FAIR" INDICATES FEW OR NO CLOUDS BELOW 12,000 FEET WITH NO
SIGNIFICANT WEATHER AND/OR OBSTRUCTIONS TO VISIBILITY.


NDZ001>003-009>011-017-221600-
NORTHWEST NORTH DAKOTA

CITY           SKY/WX    TMP DP  RH WIND       PRES   REMARKS
WILLISTON      SUNNY     72  61  68 NE3       30.17R
MINOT          MOSUNNY   68  60  75 CALM      30.16R
MINOT AFB      MOSUNNY   68  65  90 N5        30.16R
$$

NDZ018>021-031>035-040>046-221600-
SOUTHWEST NORTH DAKOTA

CITY           SKY/WX    TMP DP  RH WIND       PRES   REMARKS
BISMARCK       PTSUNNY   68  62  81 N6        30.19R
DICKINSON      PTSUNNY   67  63  87 E7        30.20R
GARRISON         N/A     69  62  78 CALM      30.17R
HETTINGER ARPT MOSUNNY   70  61  73 E8        30.21R
$$

NDZ004>008-012>016-024-026-027-054-221600-
NORTHEAST NORTH DAKOTA

CITY           SKY/WX    TMP DP  RH WIND       PRES   REMARKS
GRAND FORKS    MOSUNNY   70  60  70 NW10      30.09R
GRND FRKS AFB  SUNNY     70  61  72 NW9       30.11R
DEVILS LAKE    MOSUNNY   70  57  64 NE5       30.13R
$$

NDZ022-023-025-028>030-036>039-047>053-221600-
SOUTHEAST NORTH DAKOTA

CITY           SKY/WX    TMP DP  RH WIND       PRES   REMARKS
FARGO          SUNNY     72  60  66 NW13      30.09R
JAMESTOWN      SUNNY     70  59  68 N10       30.14R
$$



USA.gov is the U.S. government's official web portal to all federal, state and local government web resources and services.